714  
FPUS83 KFGF 150410  
OPUFGF  
PRAIRIE TO PINES WEATHER ROUNDUP  
NATIONAL WEATHER SERVICE EASTERN NORTH DAKOTA/GRAND FORKS ND  
1100 PM CDT SUN AUG 14 2022  
 
**SATELLITE DATA USED TO AUGMENT SKY COVER AT AUTOMATED STATIONS**  
***** WEATHER ACROSS EASTERN NORTH DAKOTA *****  
 
CITY SKY/WX TMP DP RH WIND PRES REMARKS  
GRAND FORKS FAIR 69 62 78 SE7 29.98R  
GRND FORKS AFB FAIR 67 63 85 S6 29.98R  
GRND FORKS NWS NOT AVBL  
BUXTON NOT AVBL  
DEVILS LAKE FAIR 70 67 90 SE7 29.98R  
FARGO FAIR 70 61 73 SE7 29.99S  
WAHPETON ARPT FAIR 66 63 88 SE8 29.99S  

 
 
***** WEATHER ACROSS CENTRAL AND WESTERN NORTH DAKOTA *****  
 
CITY SKY/WX TMP DP RH WIND PRES REMARKS  
JAMESTOWN FAIR 69 65 86 S7 29.98R  
BISMARCK FAIR 74 67 78 CALM 29.95R  
MINOT FAIR 75 66 73 SE7 29.90F  
MINOT AFB FAIR 70 68 93 S6 29.89F  
GARRISON N/A 71 67 87 SE7 29.93S  
WILLISTON NOT AVBL  
DICKINSON FAIR 73 60 63 S7 29.95R  
HETTINGER FAIR 65 59 81 CALM 29.98S  

 
 
***** OTHER OBSERVATIONS NORTHEAST NORTH DAKOTA *****  
 
CITY SKY/WX TMP DP RH WIND PRES REMARKS  
WALHALLA FAIR 70 70 100 SE5 29.96S  
LANGDON FAIR 66 66 100 SE7 29.99S  
CAVALIER FAIR 72 70 94 S6 29.97R  
GRAFTON FAIR 68 64 88 SE9 29.98S  
CANDO FAIR 66 66 100 SE6 29.98S  
FORT TOTTEN N/A 71 68 89 S6 29.95S  
ROLLA FAIR 68 68 100 S6 29.97F  
RUGBY NOT AVBL  
***** THE ABOVE OBSERVATIONS ARE NON NWS ARE NOT QUALITY  
CONTROLLED AND MAY MIS-REPORT RAIN FOR SNOW...  

 
 
***** OTHER OBSERVATIONS SOUTHEAST NORTH DAKOTA *****  
 
CITY SKY/WX TMP DP RH WIND PRES REMARKS  
COOPERSTOWN MOCLDY 66 66 100 SE7 30.00R  
VALLEY CITY FAIR 70 68 94 S8 30.00R  
OAKES FAIR 64 64 100 SE6 30.00R  
GWINNER CLEAR 63 63 100 SE3 30.00R  
SHEYENNE NWR N/A 63 61 93 E3 29.95S  
BUFFALO NOT AVBL  
WYNDMERE NOT AVBL  
***** THE ABOVE OBSERVATIONS ARE NON NWS ARE NOT QUALITY  
CONTROLLED AND MAY MIS-REPORT RAIN FOR SNOW...  

 
 
***** WEATHER ACROSS NORTHERN MINNESOTA *****  
 
CITY SKY/WX TMP DP RH WIND PRES REMARKS  
FLAG ISLAND NOT AVBL  
WARROAD FAIR 64 61 88 CALM 30.02R  
ROSEAU N/A 63 61 94 CALM 30.01S  
HALLOCK FAIR 66 64 94 SE8 29.97S  
THF RVR FALLS FAIR 65 63 93 S5 30.02S  
HALSTAD NOT AVBL  
FOSSTON FAIR 64 57 77 SE5 30.03S  
BAUDETTE FAIR 65 61 87 CALM 30.03R  
WASKISH FAIR 64 61 88 CALM 30.03S  
CROOKSTON FAIR 64 61 88 SE7 30.01S  

 
***** WEATHER ACROSS CENTRAL AND WEST MINNESOTA *****  
 
CITY SKY/WX TMP DP RH WIND PRES REMARKS  
BEMIDJI FAIR 63 59 85 CALM 30.04R  
PARK RAPIDS N/A N/A N/A N/A MISG 30.04S  
WADENA FAIR 63 63 100 CALM 30.05R  
DETROIT LAKES FAIR 66 63 88 SE7 30.03S  
MOORHEAD FAIR 66 63 88 SE3 30.01R  
FERGUS FALLS FAIR 66 57 72 SE6 29.99F  
ELBOW LAKE FAIR 65 64 94 SE6 30.04S  
MORRIS MN FAIR 63 63 100 SE5 30.04S  
STAPLES FAIR 64 61 88 CALM 30.05S  
WHEATON N/A 64 61 88 SE8 30.03S  

 
***** WEATHER ELSEWHERE ACROSS MINNESOTA *****  
 
CITY SKY/WX TMP DP RH WIND PRES REMARKS  
DULUTH MOCLDY 60 58 92 E6 30.09F FOG  
INTRNTL FALLS FAIR 64 61 90 CALM 30.04S  
ELY CLOUDY 63 63 100 SW7 30.09S  
CLOQUET NOT AVBL  
BRAINERD FAIR 64 60 87 SE5 30.05S  
HIBBING FAIR 59 59 100 CALM 30.07R  
ALEXANDRIA FAIR 64 60 87 SE6 30.06S  
SAINT CLOUD FAIR 64 60 87 SE6 30.05S  
MINNEAPOLIS FAIR 65 59 81 SE5 30.07S  

 
 
***** WEATHER ACROSS SOUTH DAKOTA *****  
 
CITY SKY/WX TMP DP RH WIND PRES REMARKS  
SIOUX FALLS MOCLDY 69 62 78 SE7 30.04S  
BROOKINGS FAIR 66 65 96 SE6 30.06R  
WATERTOWN FAIR 67 63 87 S6 30.03S  
HURON FAIR 67 61 81 NE6 30.02R  
SISSETON N/A 66 62 87 SE7 30.00S  
ABERDEEN FAIR 66 64 93 SE6 30.01R  
MITCHELL FAIR 69 63 81 S12 30.01S  
PIERRE FAIR 71 66 84 SE8 29.96S  
MOBRIDGE FAIR 75 61 61 S13 29.95R  
RAPID CITY FAIR 73 65 75 CALM 30.02S  

 
 
***** SOME WEATHER IN NEARBY STATES *****  
 
CITY SKY/WX TMP DP RH WIND PRES REMARKS  
GLASGOW MT FAIR 75 38 26 N6 29.93R  
GREAT FALLS MT FAIR 74 32 21 E10 30.06R  
CHEYENNE WY MOCLDY 66 57 72 SE5 30.21R  
SCOTTSBLUFF NE FAIR 72 61 68 N3 30.07F  
OMAHA NE MOCLDY 72 62 71 E5 30.00R  
DES MOINES IA FAIR 68 61 78 E6 30.04S  
DAVENPORT IA CLOUDY 68 63 84 N9 30.06S  
CHICAGO IL LGT RAIN 66 63 90 NE13 30.01S  
EAU CLAIRE WI FAIR 59 57 93 CALM 30.08S  
LA CROSSE WI CLOUDY 68 63 84 CALM 30.06S  

 
 
***** SOME NATIONAL WEATHER *****  
 
CITY SKY/WX TMP DP RH WIND PRES REMARKS  
LA GUARDIA NY FAIR 73 54 51 S9 30.03R  
RALEIGH NC CLOUDY 76 62 62 SE5 29.99F  
ATLANTA GA FAIR 79 67 66 SW6 30.00S  
NEW ORLEANS LA FAIR 82 76 81 S5 29.97R  
OKLAHOMA CITY FAIR 79 57 46 SE7 29.94S  
ALBUQUERQUE NM FAIR 77 52 41 CALM 30.16R  
SALT LAKE CITY MOCLDY 80 55 42 CALM 30.09S  
LOS ANGELES CA FAIR 69 57 65 W8 29.86S  
BOISE ID FAIR 84 37 18 NW3 29.97R  
SEATTLE WA FAIR 72 50 45 N6 30.08R  

 
 
*** WEATHER ACROSS MANITOBA...SASKATCHEWAN AND ONTARIO ***  
***ONTARIO***  
 
CITY SKY/WX TMP DP RH WIND PRES REMARKS  
GERALDTON NOT AVBL  
THUNDER BAY NOT AVBL  
SIOUX LOOKOUT CLOUDY 66 64 94 CALM 30.07R  
TORONTO MOCLDY 70 52 52 NE5 30.02S  
BIG TROUT LK CLEAR 63 59 88 S5 30.12R  
PICKLE LAKE CLOUDY 61 59 94 E7 30.10S  
DRYDEN CLOUDY 63 61 94 E5 30.05R  
KENORA PTCLDY 68 61 77 S8 30.02F  

 
*** MANITOBA***  
 
CITY SKY/WX TMP DP RH WIND PRES REMARKS  
BRANDON PTCLDY 70 68 94 E14 29.96S  
DAUPHIN CLEAR 64 N/A N/A E2 29.97S  
ISLAND LAKE CLEAR 63 59 88 VRB2 30.06S  
PILOT MOUND N/A 68 68 100 SE7 N/A  
THE PAS CLOUDY 66 61 82 E3 30.01S  
THOMPSON CLEAR 59 48 67 E3 30.05R  
WINNIPEG PTCLDY 70 64 83 SE8 29.96S  
LYNN LAKE CLEAR 63 54 72 SE3 30.03R  
CHURCHILL CLEAR 64 52 63 SE8 30.03S  
GILLAM CLEAR 61 48 63 S5 30.07S  

 
***SASKATCHEWAN***  
 
CITY SKY/WX TMP DP RH WIND PRES REMARKS  
ESTEVAN TSTM 75 66 73 SE14G32 29.88F  
KINDERSLEY PTCLDY 61 50 67 NE8 30.02S  
LLOYDMINSTER MOCLDY 59 54 82 W8 30.01R  
PRINCE ALBERT PTCLDY 63 63 100 NE3 29.99S  
REGINA CLOUDY 73 66 78 E9 29.94R  
YORKTON PTCLDY 64 63 94 N8 29.97R  
 
CLICK HERE TO GO TO PREVIOUS BULLETINS.

The Nexlab ND Page
The Nexlab MN Page Main Text Page